• Processing (Info)

  • MPEC 2001-Y07 : 2000 SY370

    The following Minor Planet Electronic Circular may be linked-to from your own Web pages, but must not otherwise be redistributed electronically.

    A form allowing access to any MPEC is at the bottom of this page.


    Read MPEC 2001-Y06 Read MPEC 2001-Y08


    M.P.E.C. 2001-Y07                                Issued 2001 Dec. 17, 18:45 UT
    
         The Minor Planet Electronic Circulars contain information on unusual
             minor planets and routine data on comets.  They are published
       on behalf of Commission 20 of the International Astronomical Union by the
              Minor Planet Center, Smithsonian Astrophysical Observatory,
                              Cambridge, MA 02138, U.S.A.
    
                 Prepared using the Tamkin Foundation Computer Network
    
                                  MPC@CFA.HARVARD.EDU
              URL http://cfa-www.harvard.edu/iau/mpc.html  ISSN 1523-6714
    
                                      2000 SY370
    
                               Revision to MPEC 2001-P13
    
    Observations:
         K00Sb0Y  C2001 08 24.25496 20 26 43.07 -18 04 20.6          23.8 R      568
         K00Sb0Y  C2001 08 24.27556 20 26 42.98 -18 04 21.0          24.2 R      568
         K00Sb0Y  C2001 08 24.29717 20 26 42.90 -18 04 21.3          24.7 R      568
         K00Sb0Y  C2001 11 15.02786 20 25 17.12 -18 10 39.8          24.3 R      309
         K00Sb0Y  C2001 11 15.07571 20 25 17.25 -18 10 39.5          24.3 R      309
    
    Observer details:
    309 Cerro Paranal.  Observer J.-M. Petit.  ESO 8.2-m UT3 Telescope + CCD.
    568 Mauna Kea.  Observers J. Kavelaars.  Measurers J.-M. Petit, B. Gladman.
        3.6-m Canada-France-Hawaii Telescope + CCD.
    
    First and last observations above in comparison with prediction:
    Residuals in seconds of arc and reference
    010824 568  8.3+ 24.4-    011115 309  2.3- 33.5-    MPO 16089
    
    Orbital elements:
    2000 SY370
    Epoch 2001 Oct. 18.0 TT = JDT 2452200.5                 MPC
    M 311.81021              (2000.0)            P               Q
    n   0.00268206     Peri.  125.17531     +0.81461175     -0.57912991
    a  51.3047109      Node   270.23464     +0.52124324     +0.75507905
    e   0.3738882      Incl.    1.82684     +0.25438787     +0.30735026
    P 367              H    8.0           G   0.15           U   7
    Residuals in seconds of arc
    000923 568  0.1-  0.0     000924 568  0.2+  0.0     011115 309  0.1-  0.1+
    000923 568  0.1-  0.0     010824 568  0.0   0.0     011115 309  0.0   0.0
    000923 568  0.0   0.2-    010824 568  0.1-  0.1-
    000924 568  0.1-  0.1+    010824 568  0.0   0.0
    
    Ephemeris:
    2000 SY370               a,e,i = 51.30, 0.37, 2                  q = 32.122
    Date    TT    R. A. (2000) Decl.     Delta      r     Elong.  Phase     V
    2002 03 07    20 35.15   -17 35.5   44.763   44.003    39.6     0.8    24.6
    2002 03 17    20 35.94   -17 32.4   44.635   43.993    49.3     1.0    24.6
    2002 03 27    20 36.61   -17 29.7   44.487   43.983    59.1     1.1    24.6
    2002 04 06    20 37.15   -17 27.4   44.325   43.974    68.8     1.2    24.6
    2002 04 16    20 37.55   -17 25.6   44.152   43.964    78.5     1.3    24.6
    2002 04 26    20 37.80   -17 24.4   43.974   43.954    88.2     1.3    24.6
    2002 05 06    20 37.90   -17 23.7   43.794   43.945    97.9     1.3    24.6
    2002 05 16    20 37.84   -17 23.6   43.619   43.935   107.6     1.3    24.6
    2002 05 26    20 37.64   -17 24.0   43.452   43.925   117.3     1.2    24.6
    2002 06 05    20 37.30   -17 25.0   43.299   43.916   126.9     1.1    24.6
    2002 06 15    20 36.84   -17 26.5   43.162   43.906   136.6     0.9    24.5
    2002 06 25    20 36.26   -17 28.4   43.047   43.896   146.3     0.7    24.5
    2002 07 05    20 35.60   -17 30.7   42.956   43.887   156.0     0.5    24.5
    2002 07 15    20 34.87   -17 33.2   42.891   43.877   165.7     0.3    24.4
    2002 07 25    20 34.11   -17 35.9   42.855   43.867   175.3     0.1    24.4
    2002 08 04    20 33.33   -17 38.7   42.847   43.858   174.7     0.1    24.4
    2002 08 14    20 32.56   -17 41.5   42.869   43.848   165.0     0.3    24.4
    2002 08 24    20 31.84   -17 44.1   42.918   43.838   155.2     0.6    24.5
    2002 09 03    20 31.19   -17 46.6   42.995   43.829   145.4     0.7    24.5
    2002 09 13    20 30.62   -17 48.7   43.095   43.819   135.5     0.9    24.5
    2002 09 23    20 30.18   -17 50.4   43.216   43.809   125.7     1.1    24.5
    2002 10 03    20 29.86   -17 51.8   43.355   43.800   115.8     1.2    24.6
    2002 10 13    20 29.69   -17 52.6   43.507   43.790   105.9     1.3    24.6
    2002 10 23    20 29.67   -17 52.8   43.666   43.780    96.0     1.3    24.6
    2002 11 02    20 29.81   -17 52.5   43.829   43.771    86.0     1.3    24.6
    2002 11 12    20 30.10   -17 51.7   43.989   43.761    76.1     1.3    24.6
    2002 11 22    20 30.55   -17 50.3   44.143   43.752    66.1     1.2    24.6
    2002 12 02    20 31.15   -17 48.3   44.284   43.742    56.1     1.1    24.6
    2002 12 12    20 31.87   -17 45.9   44.409   43.732    46.1     0.9    24.6
    2002 12 22    20 32.70   -17 43.0   44.513   43.723    36.2     0.8    24.6
    
    Brian G. Marsden             (C) Copyright 2001 MPC           M.P.E.C. 2001-Y07
    

    Read MPEC 2001-Y06 Read MPEC 2001-Y08


    MPEC number:

    Enter an MPEC number in one of the following forms:

    • 1997-B01 (the full form)
    • J97B01 (the packed version of the full form)
    • B01 (the abbreviated form)